Tracking 25709 objects as of 23-May-2022
HD Live streaming from Space Station
objects crossing your sky now

SL-6 R/B(2)

Track SL-6 R/B(2) now!


NORAD ID: 22241
Int'l Code: 1992-081D
Perigee: 4,096.0 km
Apogee: 35,778.6 km
Inclination: 68.9 °
Period: 707.8 minutes
Semi major axis: 26308 km
RCS: 5.1164 m2 (large)
Launch date: November 25, 1992
Source: Commonwealth of Independent States (former USSR) (CIS)
Launch site: PLESETSK MISSILE AND SPACE COMPLEX (PKMTR)

Note: This is a ROCKET BODY
aabbcc
Your satellite tracking list
Your tracking list is empty




NASA's NSSDC Master Catalog

Two Line Element Set (TLE):
1 22241U 92081D   22141.83885416 -.00000728  00000-0  00000-0 0  9992
2 22241  68.8652 112.8125 6021412  59.0595 346.4045  2.03452888219061
Source of the keplerian elements: AFSPC